Location: Montbazon
(47.2835°N, 0.6999°E)
Time: 07:12:04
(UTC+00:00)

IRS-1D - Pass Details

Date: 08 November 2025
Orbit: 736 x 811 km, 98.8° (Epoch: 12 December)

Event Time Altitude Azimuth Distance (km) Brightness Sun altitude
Rises 04:33:49 0° 19° (NNE) 3,211 7.0 -23.5°
Reaches altitude 10° 04:36:13 10° 24° (NNE) 2,273 6.2 -23.0°
Maximum altitude 04:41:03 50° 100° (E) 943 4.3 -22.2°
Drops below altitude 10° 04:45:48 10° 176° (S) 2,235 6.0 -21.4°
Sets 04:48:08 0° 181° (S) 3,152 6.7 -21.0°
